TimeCEST,TemperatureF,Dew PointF,Humidity,Sea Level PressureIn,VisibilityMPH,Wind Direction,Wind SpeedMPH,Gust SpeedMPH,PrecipitationIn,Events,Conditions,WindDirDegrees,DateUTC
12:25 AM,57.2,55.4,94,29.80,6.2,SSW,11.5,-,N/A,,Mostly Cloudy,200,2013-06-22 22:25:00
12:55 AM,57.2,53.6,88,29.77,6.2,SSW,10.4,-,N/A,,Overcast,200,2013-06-22 22:55:00
1:25 AM,55.4,53.6,94,29.77,6.2,SSW,11.5,-,N/A,,Mostly Cloudy,200,2013-06-22 23:25:00
1:55 AM,55.4,51.8,88,29.77,6.2,SSW,12.7,-,N/A,,Scattered Clouds,200,2013-06-22 23:55:00
2:25 AM,55.4,51.8,88,29.77,6.2,SSW,11.5,-,N/A,,Overcast,210,2013-06-23 00:25:00
2:55 AM,55.4,51.8,88,29.77,6.2,SSW,10.4,-,N/A,,Mostly Cloudy,200,2013-06-23 00:55:00
3:25 AM,55.4,51.8,88,29.77,6.2,South,10.4,-,N/A,,Mostly Cloudy,190,2013-06-23 01:25:00
3:55 AM,53.6,51.8,94,29.77,6.2,South,11.5,-,N/A,,Mostly Cloudy,190,2013-06-23 01:55:00
4:25 AM,53.6,51.8,94,29.77,6.2,South,11.5,-,N/A,,Mostly Cloudy,190,2013-06-23 02:25:00
4:55 AM,53.6,51.8,94,29.77,6.2,SSW,11.5,-,N/A,,Mostly Cloudy,200,2013-06-23 02:55:00
5:25 AM,53.6,51.8,94,29.77,6.2,South,10.4,-,N/A,,Mostly Cloudy,190,2013-06-23 03:25:00
5:55 AM,55.4,51.8,88,29.74,6.2,South,11.5,-,N/A,,Overcast,190,2013-06-23 03:55:00
6:25 AM,55.4,51.8,88,29.74,6.2,South,11.5,-,N/A,,Mostly Cloudy,190,2013-06-23 04:25:00
6:55 AM,55.4,50.0,82,29.74,6.2,SSW,13.8,-,N/A,Rain,Light Rain,200,2013-06-23 04:55:00
7:25 AM,55.4,51.8,88,29.74,6.2,SSW,15.0,-,N/A,,Overcast,200,2013-06-23 05:25:00
7:55 AM,55.4,50.0,82,29.74,6.2,SSW,15.0,-,N/A,,Overcast,200,2013-06-23 05:55:00
8:25 AM,57.2,50.0,77,29.74,6.2,SSW,16.1,-,N/A,,Overcast,210,2013-06-23 06:25:00
8:55 AM,57.2,50.0,77,29.74,6.2,SSW,17.3,-,N/A,,Overcast,210,2013-06-23 06:55:00
9:25 AM,57.2,51.8,82,29.77,6.2,SSW,16.1,-,N/A,,Overcast,210,2013-06-23 07:25:00
9:55 AM,57.2,51.8,82,29.77,6.2,SSW,15.0,-,N/A,,Overcast,210,2013-06-23 07:55:00
10:25 AM,57.2,53.6,88,29.77,6.2,SSW,17.3,-,N/A,,Overcast,210,2013-06-23 08:25:00
10:55 AM,57.2,51.8,82,29.77,6.2,SSW,17.3,-,N/A,,Overcast,210,2013-06-23 08:55:00
11:25 AM,59.0,51.8,77,29.77,6.2,SSW,17.3,-,N/A,,Overcast,210,2013-06-23 09:25:00
11:55 AM,59.0,53.6,82,29.77,6.2,SSW,17.3,28.8,N/A,,Mostly Cloudy,210,2013-06-23 09:55:00
12:25 PM,59.0,51.8,77,29.80,6.2,SW,16.1,-,N/A,,Overcast,220,2013-06-23 10:25:00
12:55 PM,60.8,51.8,72,29.80,6.2,SSW,15.0,-,N/A,,Mostly Cloudy,210,2013-06-23 10:55:00
1:25 PM,60.8,51.8,72,29.77,3.1,SSW,24.2,-,N/A,,Haze,210,2013-06-23 11:25:00
1:55 PM,60.8,51.8,72,29.80,6.2,SSW,17.3,-,N/A,,Mostly Cloudy,210,2013-06-23 11:55:00
2:25 PM,59.0,53.6,82,29.80,6.2,SW,17.3,-,N/A,Rain,Light Rain,220,2013-06-23 12:25:00
2:55 PM,60.8,53.6,77,29.80,6.2,SW,16.1,-,N/A,,Overcast,220,2013-06-23 12:55:00
3:25 PM,60.8,53.6,77,29.80,6.2,SSW,15.0,-,N/A,,Mostly Cloudy,210,2013-06-23 13:25:00
3:55 PM,62.6,53.6,72,29.83,6.2,SSW,18.4,-,N/A,,Overcast,210,2013-06-23 13:55:00
4:25 PM,62.6,50.0,63,29.83,6.2,SW,19.6,-,N/A,,Mostly Cloudy,220,2013-06-23 14:25:00
4:55 PM,64.4,51.8,64,29.83,6.2,SSW,18.4,-,N/A,,Mostly Cloudy,210,2013-06-23 14:55:00
5:25 PM,60.8,51.8,72,29.83,6.2,SSW,17.3,-,N/A,,Overcast,210,2013-06-23 15:25:00
5:55 PM,62.6,51.8,68,29.83,6.2,SSW,16.1,27.6,N/A,,Mostly Cloudy,210,2013-06-23 15:55:00
6:25 PM,59.0,53.6,82,29.83,6.2,SSW,15.0,-,N/A,,Overcast,210,2013-06-23 16:25:00
6:55 PM,59.0,53.6,82,29.86,3.1,WSW,13.8,-,N/A,Rain,Rain Showers,240,2013-06-23 16:55:00
7:25 PM,57.2,55.4,94,29.86,5.6,SW,11.5,-,N/A,Rain,Light Rain Showers,220,2013-06-23 17:25:00
7:55 PM,57.2,53.6,88,29.86,6.2,SSW,11.5,-,N/A,Rain,Light Rain,210,2013-06-23 17:55:00
8:25 PM,57.2,53.6,88,29.86,6.2,SSW,10.4,-,N/A,,Overcast,210,2013-06-23 18:25:00
8:55 PM,57.2,55.4,94,29.86,6.2,SSW,9.2,-,N/A,,Overcast,210,2013-06-23 18:55:00
9:25 PM,57.2,55.4,94,29.86,6.2,SW,9.2,-,N/A,,Mostly Cloudy,220,2013-06-23 19:25:00
9:55 PM,57.2,53.6,88,29.86,6.2,SW,10.4,-,N/A,,Mostly Cloudy,220,2013-06-23 19:55:00
10:25 PM,55.4,53.6,94,29.89,6.2,SW,10.4,-,N/A,,Mostly Cloudy,220,2013-06-23 20:25:00
10:55 PM,55.4,53.6,94,29.89,6.2,SSW,9.2,-,N/A,,Mostly Cloudy,210,2013-06-23 20:55:00
11:25 PM,55.4,53.6,94,29.89,6.2,SSW,9.2,-,N/A,,Mostly Cloudy,210,2013-06-23 21:25:00
11:55 PM,57.2,53.6,88,29.89,6.2,SSW,10.4,-,N/A,,Mostly Cloudy,210,2013-06-23 21:55:00